Wind_Speed
17 18 21 21 21 23 26 27 25 29 28 31 28 27 25 22 12 8 8 7 9 4 5 7 7 7 7 7 8 8 8 7 6 5 6 6 6 6 7 8 7 7 6 7 7 7 7 9 11
20 18 16 18 21 26 27 28 27 27 27 28 27 30 30 21 11 9 8 10 9 7 6 8 9 9 7 7 7 7 7 7 6 5 6 6 6 5 5 6 7 7 6 7 7 8 8 9 10
15 18 21 21 24 30 29 26 24 25 26 24 26 29 33 27 18 15 11 9 10 9 8 9 10 9 10 9 8 7 7 7 5 4 4 5 5 5 5 6 7 7 6 7 10 9 9 10 11
10 11 16 22 24 29 29 28 30 28 27 23 23 27 32 30 22 18 14 13 11 12 10 12 11 10 10 8 7 7 6 6 6 4 4 3 5 6 7 7 7 8 6 5 10 11 11 10 11
6 7 11 18 29 28 32 27 31 31 27 24 22 26 28 27 25 22 17 14 15 14 13 10 10 10 10 10 10 7 5 4 5 4 4 4 4 6 8 8 9 8 8 6 9 12 11 10 10
8 6 9 15 24 29 28 28 24 23 25 26 24 27 26 23 26 27 24 20 17 15 14 12 9 9 10 11 11 10 8 5 6 6 6 7 7 6 8 10 11 10 11 10 8 10 10 11 10
6 9 8 12 22 27 28 25 23 21 19 24 25 26 27 24 26 28 24 21 25 21 17 13 12 9 8 10 11 9 8 7 4 6 8 9 10 10 9 9 13 13 13 12 9 8 11 11 11
8 9 9 12 19 21 24 24 27 24 19 21 24 24 24 25 25 24 22 24 27 23 21 17 13 10 8 7 9 9 8 6 6 6 8 11 12 13 12 10 17 17 16 13 11 9 11 12 11
8 9 10 6 6 13 18 21 21 25 22 18 22 23 22 22 25 22 21 25 27 28 21 21 20 15 7 4 5 5 4 5 5 7 9 11 13 14 13 11 16 19 17 15 14 11 10 12 11
13 12 12 12 6 3 11 15 17 24 18 21 20 21 20 20 22 23 23 24 25 29 26 24 24 21 17 11 3 3 4 3 2 5 9 11 12 15 15 13 13 18 19 16 15 14 10 11 11
17 15 10 11 9 5 4 6 11 16 19 21 20 16 17 16 19 23 23 23 25 25 25 29 28 26 16 13 6 3 1 1 1 3 5 10 15 16 16 15 13 17 20 18 17 16 13 11 11
21 21 13 6 6 7 4 1 5 12 22 21 12 16 15 13 15 20 23 25 25 24 25 27 28 28 23 11 5 3 8 5 1 3 4 10 15 13 14 15 13 13 18 21 19 17 15 12 12
25 25 20 15 10 8 3 4 4 6 17 14 9 10 12 16 12 15 21 25 25 26 25 25 28 30 26 24 10 3 6 5 1 2 4 8 14 13 13 16 16 15 15 20 21 18 16 14 14
33 30 25 20 16 14 13 12 6 6 11 11 14 7 12 13 17 14 15 21 23 25 25 26 26 27 30 26 23 12 6 6 4 3 4 3 13 15 14 14 14 17 17 17 21 20 18 16 14
38 32 25 22 22 23 20 19 14 14 10 10 9 19 7 12 11 14 13 17 21 22 24 27 25 25 27 31 29 25 4 5 4 7 2 1 7 13 15 15 16 17 16 15 20 21 19 18 18
36 32 24 13 17 23 27 14 11 17 9 14 7 8 12 7 12 13 16 16 19 18 21 25 25 21 22 25 27 26 21 11 9 10 9 5 4 11 14 15 17 17 17 16 18 21 20 19 19
36 30 22 19 22 24 27 18 19 14 17 13 12 4 7 10 8 14 17 18 17 17 16 21 25 20 18 20 23 22 21 18 14 9 6 5 4 7 14 19 18 19 19 17 20 21 22 21 20
30 33 27 27 28 29 27 27 24 16 14 15 17 10 7 10 8 10 15 17 16 18 17 16 20 23 16 18 18 20 17 21 20 12 8 7 4 5 9 17 20 20 20 20 21 22 23 26 23
31 36 29 35 33 36 31 29 22 16 19 17 17 16 14 12 9 13 12 17 12 17 17 19 18 18 19 15 17 17 18 18 23 19 13 10 9 6 8 11 18 23 21 22 24 25 23 23 23
34 33 32 37 39 41 33 32 29 20 23 19 18 17 19 18 16 13 14 17 16 16 20 18 18 18 16 15 17 17 19 21 20 24 18 13 13 9 9 12 15 20 23 23 23 25 26 24 23
31 34 31 35 45 41 40 39 30 22 25 27 26 22 24 20 16 16 18 19 21 25 19 22 22 21 16 18 19 19 19 22 24 26 25 15 14 13 12 13 15 16 23 23 24 25 25 25 26
32 29 29 37 48 46 39 45 36 34 31 32 32 33 28 25 19 18 21 19 19 23 22 21 20 22 18 17 19 17 21 24 24 29 29 15 13 14 16 14 16 18 20 26 25 25 28 27 26
24 26 28 29 43 47 50 49 44 37 36 29 31 33 31 27 22 23 25 15 21 22 21 21 20 20 19 18 17 18 20 27 31 32 24 16 12 13 14 17 17 19 19 21 26 27 29 30 30
23 32 30 28 27 43 52 51 50 41 31 35 37 38 29 30 23 18 21 20 20 27 26 20 20 18 19 15 18 21 25 30 34 28 17 15 10 11 12 13 17 18 19 21 23 25 26 29 30
29 32 31 28 26 31 28 36 34 19 28 33 34 31 32 29 17 13 12 13 20 26 22 20 18 19 17 15 20 25 30 31 28 18 19 14 7 9 8 10 14 17 18 19 21 23 25 27 31
33 34 29 28 26 25 25 30 27 24 30 31 33 37 36 31 18 12 14 13 20 18 19 18 18 19 14 15 21 26 31 32 17 30 17 10 7 4 6 6 8 11 13 16 18 21 24 27 30
35 34 29 26 24 21 20 28 24 25 25 26 33 30 30 26 16 15 16 17 17 18 18 17 20 16 12 14 19 22 27 27 11 12 9 4 4 6 6 5 8 9 11 16 18 20 23 32 35
32 30 28 24 29 24 23 27 27 24 22 22 25 21 22 16 16 19 19 19 17 20 17 19 19 12 11 13 17 20 19 20 20 11 4 4 5 9 9 8 8 9 9 11 14 17 13 14 19
30 34 29 33 31 22 26 22 26 26 21 23 24 20 18 13 19 20 14 16 20 21 19 21 16 12 7 10 13 16 18 14 11 8 7 6 8 8 9 10 11 11 11 13 12 16 18 16 15
30 35 32 36 27 28 27 21 13 29 24 12 14 9 14 19 22 22 23 23 24 20 21 20 14 10 6 7 8 12 12 13 10 10 14 11 9 9 9 11 12 12 12 14 13 12 14 14 14
Wind_Direction
66 64 63 56 56 52 52 45 35 32 28 32 25 21 27 34 26 58 65 64 84 85 95 107 119 132 146 156 158 157 153 146 139 150 155 151 161 172 185 189 182 169 166 163 156 160 149 138 139
64 63 73 80 66 59 50 42 37 31 26 31 27 29 30 31 40 70 62 62 74 82 81 86 101 111 120 145 161 163 156 154 153 144 156 154 159 169 182 185 189 181 176 163 166 167 156 150 142
77 65 67 71 67 61 52 46 43 37 33 33 29 32 36 38 52 62 61 57 72 66 93 93 89 98 113 129 144 164 169 163 162 149 142 157 162 178 183 186 187 182 183 175 175 170 168 164 152
79 53 66 65 63 54 43 50 39 35 38 38 35 36 39 45 51 59 67 58 56 64 87 96 99 104 100 97 116 144 164 174 168 145 124 151 168 183 196 192 192 187 196 187 185 178 181 172 164
78 49 55 53 43 60 49 45 41 33 35 38 44 43 41 56 62 66 71 67 72 69 77 94 105 108 110 108 105 113 130 151 164 156 145 142 181 191 203 202 195 194 195 173 186 187 185 181 179
82 78 57 44 37 42 39 31 29 28 36 41 41 43 44 51 56 59 58 54 60 73 80 86 94 113 121 120 116 113 116 136 164 179 182 177 178 185 202 211 205 195 202 193 191 193 189 192 184
105 111 72 48 50 36 28 21 22 16 23 40 39 40 40 42 51 58 56 54 48 57 55 69 82 93 112 122 127 132 139 142 157 198 203 207 200 205 208 215 213 204 206 206 207 207 198 198 196
135 120 83 52 44 39 21 12 14 0 21 36 48 39 37 36 46 53 58 59 53 50 54 61 59 71 82 109 118 129 133 154 175 200 209 210 215 217 214 218 207 210 211 201 203 204 205 201 200
168 114 102 81 330 36 26 11 15 355 10 22 51 47 35 29 47 52 47 45 45 48 54 66 62 51 53 111 155 150 136 150 158 204 218 220 221 221 218 212 206 210 212 206 204 200 202 208 198
188 181 169 123 106 44 44 3 3 352 16 20 20 53 44 30 31 44 46 42 38 37 48 49 41 45 42 44 72 133 152 195 245 228 221 221 223 219 214 213 205 213 215 209 208 205 201 208 207
202 205 210 139 138 195 90 21 345 339 10 16 23 28 52 32 26 23 31 31 29 31 35 36 30 28 24 21 41 30 5 186 258 280 266 218 217 217 206 208 203 210 219 212 212 210 208 202 210
206 236 255 240 189 198 156 295 332 334 325 344 28 26 42 49 26 15 14 18 22 22 27 32 29 20 29 32 82 86 5 291 232 269 284 229 219 215 208 208 208 210 213 219 215 217 216 208 208
234 238 257 287 250 252 227 272 284 302 300 355 328 19 16 40 45 26 9 8 13 15 21 24 24 26 22 22 1 41 16 217 183 315 325 219 216 201 209 205 211 217 216 218 216 220 220 219 212
246 238 247 280 256 236 247 254 279 287 313 310 333 6 9 38 37 31 15 2 1 7 18 21 19 22 22 18 19 353 102 127 74 22 346 181 199 196 196 207 224 225 223 226 216 218 219 224 225
251 255 255 248 264 227 236 243 257 269 313 309 312 313 65 29 32 24 14 4 351 358 9 14 13 17 24 24 19 27 92 82 64 30 342 22 200 205 204 209 216 224 225 227 220 217 218 223 225
252 256 250 252 241 230 236 212 217 244 298 321 293 357 1 11 14 12 12 358 342 348 358 4 9 12 23 21 28 30 42 80 37 24 359 6 235 220 222 225 219 220 229 229 224 215 217 223 232
250 251 241 222 207 198 225 209 221 218 251 289 289 329 311 343 340 353 345 357 336 329 2 356 352 12 19 17 17 27 31 29 10 359 2 344 302 246 236 234 235 231 227 226 222 219 220 224 231
249 247 227 206 199 209 218 229 222 239 250 263 270 269 286 308 317 329 327 336 328 322 348 353 345 352 13 8 8 13 19 20 12 349 330 327 294 272 235 231 233 238 232 224 221 223 226 223 231
231 234 227 208 198 222 221 237 219 257 248 254 253 278 289 304 281 304 301 316 333 319 344 344 342 346 347 355 359 356 2 356 5 354 324 316 300 264 245 238 243 237 235 225 221 221 223 226 235
238 226 225 209 200 228 219 229 220 230 255 255 255 268 285 295 281 287 285 294 291 303 344 337 335 336 342 347 349 345 345 350 347 347 324 305 301 287 266 244 239 240 234 230 225 226 224 226 232
235 233 217 211 206 222 227 228 219 207 245 247 253 258 264 283 266 274 278 285 276 305 325 336 326 331 343 333 338 336 338 332 335 329 329 290 292 287 273 261 252 243 233 232 229 228 231 232 232
233 233 221 208 212 220 232 235 237 220 223 239 250 259 264 269 255 252 260 285 285 299 310 325 316 320 335 330 328 332 329 321 318 321 315 275 278 279 280 269 258 250 239 235 231 231 232 235 241
230 216 220 216 221 222 223 243 246 237 241 247 251 261 272 262 256 251 263 276 273 284 301 307 299 313 325 326 325 321 317 309 315 310 295 261 266 275 276 270 259 247 240 241 238 237 239 244 244
226 199 208 212 220 223 225 236 242 245 252 255 252 254 245 247 254 252 280 289 293 281 306 288 289 310 321 326 319 323 320 309 301 295 273 249 258 278 268 266 255 245 239 237 236 238 242 240 243
231 217 222 228 237 240 243 236 238 226 228 236 234 227 224 240 243 256 275 281 274 279 295 280 291 306 323 328 322 325 327 320 276 293 271 244 238 273 260 266 257 250 247 245 245 245 249 248 245
228 223 236 251 240 253 248 247 226 207 213 225 226 221 219 232 234 260 283 252 267 283 290 280 289 307 327 326 325 329 342 336 302 268 218 223 257 259 281 284 274 258 241 248 253 257 255 251 246
216 223 231 254 245 262 260 251 218 215 210 226 231 222 224 235 238 249 265 259 273 286 279 276 291 313 322 322 329 344 358 353 318 236 208 208 258 298 307 303 287 273 258 243 236 245 257 256 235
237 229 241 237 249 253 262 267 207 211 219 220 228 230 240 247 260 250 266 271 277 284 269 273 288 298 309 326 347 349 344 22 35 34 26 311 327 312 316 325 314 298 271 247 240 233 232 233 227
221 232 232 241 244 245 264 263 210 213 232 223 220 235 235 241 248 267 257 258 270 276 260 270 277 284 298 325 357 348 340 343 25 355 3 346 329 319 315 316 309 303 292 258 260 250 243 238 237
225 227 236 234 231 243 254 246 227 225 229 225 256 261 245 250 254 237 235 244 251 247 249 259 272 279 274 313 338 334 347 325 312 323 331 332 329 313 317 318 311 305 293 279 268 262 249 238 234
Height
5907 5904 5901 5902 5904 5899 5895 5892 5891 5887 5886 5883 5878 5874 5871 5866 5865 5867 5865 5865 5863 5864 5863 5862 5861 5862 5862 5862 5863 5865 5867 5869 5871 5874 5876 5877 5879 5881 5883 5884 5886 5888 5889 5890 5891 5893 5894 5894 5895
5910 5908 5907 5905 5905 5901 5900 5896 5894 5893 5890 5885 5880 5878 5872 5869 5867 5865 5866 5865 5865 5866 5865 5863 5862 5862 5863 5864 5864 5866 5867 5868 5870 5872 5874 5875 5878 5880 5882 5884 5887 5888 5889 5890 5891 5893 5895 5895 5896
5911 5911 5909 5907 5903 5901 5901 5899 5898 5896 5893 5888 5885 5881 5875 5872 5870 5868 5868 5868 5867 5866 5865 5864 5864 5864 5864 5864 5865 5866 5867 5869 5871 5872 5873 5874 5876 5879 5882 5884 5886 5888 5889 5891 5892 5893 5894 5896 5897
5912 5912 5912 5909 5904 5902 5902 5903 5900 5898 5896 5893 5889 5886 5882 5878 5874 5872 5872 5873 5872 5868 5866 5865 5865 5865 5865 5865 5866 5867 5868 5869 5871 5872 5874 5875 5877 5878 5881 5883 5886 5888 5889 5891 5891 5893 5895 5896 5898
5913 5913 5912 5909 5907 5904 5906 5905 5901 5900 5900 5898 5893 5890 5888 5885 5881 5878 5877 5875 5872 5870 5868 5867 5866 5866 5866 5866 5866 5867 5869 5869 5871 5873 5875 5876 5878 5879 5880 5882 5884 5887 5889 5891 5892 5894 5895 5897 5899
5916 5914 5911 5910 5907 5906 5907 5908 5908 5907 5904 5902 5897 5893 5892 5889 5885 5880 5878 5877 5874 5871 5869 5867 5868 5867 5867 5867 5867 5867 5868 5870 5870 5872 5874 5876 5878 5879 5880 5882 5884 5886 5888 5891 5893 5894 5896 5898 5899
5912 5912 5913 5912 5909 5908 5910 5910 5910 5912 5906 5904 5901 5896 5894 5891 5886 5883 5882 5879 5877 5874 5872 5870 5869 5869 5868 5867 5867 5868 5869 5869 5871 5872 5873 5875 5876 5878 5880 5881 5883 5885 5887 5890 5892 5894 5896 5898 5899
5912 5911 5910 5910 5909 5908 5911 5912 5912 5911 5909 5906 5904 5901 5896 5894 5890 5887 5885 5881 5878 5876 5873 5872 5872 5871 5871 5870 5868 5868 5869 5869 5870 5872 5873 5874 5876 5877 5878 5880 5882 5884 5886 5889 5891 5894 5897 5898 5899
5912 5911 5908 5908 5907 5907 5909 5912 5913 5911 5910 5909 5905 5904 5900 5897 5896 5892 5889 5886 5882 5879 5877 5875 5874 5872 5870 5869 5869 5869 5869 5868 5868 5869 5871 5873 5874 5875 5877 5878 5880 5883 5885 5887 5890 5893 5896 5898 5899
5911 5910 5907 5905 5905 5906 5906 5909 5911 5912 5911 5910 5907 5903 5904 5899 5897 5895 5892 5888 5885 5883 5881 5878 5876 5873 5871 5868 5867 5867 5867 5867 5867 5867 5867 5870 5872 5873 5874 5877 5878 5880 5883 5886 5889 5892 5894 5897 5900
5910 5908 5906 5903 5902 5904 5905 5907 5911 5914 5913 5911 5907 5903 5903 5901 5898 5895 5894 5890 5888 5885 5882 5880 5877 5874 5871 5868 5866 5865 5866 5865 5865 5866 5866 5868 5869 5870 5872 5875 5877 5878 5880 5884 5887 5890 5893 5895 5898
5908 5908 5906 5905 5904 5904 5905 5907 5910 5912 5912 5910 5908 5906 5903 5902 5900 5898 5894 5892 5888 5886 5884 5882 5878 5875 5870 5867 5866 5865 5865 5864 5864 5864 5864 5865 5866 5868 5871 5874 5877 5878 5879 5882 5885 5888 5891 5894 5896
5904 5904 5907 5907 5905 5905 5906 5907 5907 5910 5911 5911 5910 5908 5906 5902 5900 5899 5896 5892 5890 5888 5886 5882 5880 5876 5873 5869 5866 5862 5860 5861 5862 5863 5863 5863 5864 5866 5870 5872 5874 5877 5878 5879 5883 5886 5889 5892 5894
5901 5902 5906 5907 5906 5905 5905 5905 5905 5909 5909 5910 5910 5909 5907 5902 5901 5899 5898 5894 5891 5889 5888 5885 5881 5878 5875 5870 5865 5860 5859 5861 5862 5861 5861 5862 5863 5865 5867 5870 5873 5875 5877 5879 5881 5884 5887 5889 5891
5894 5898 5903 5908 5905 5903 5903 5904 5905 5907 5906 5907 5908 5908 5906 5904 5901 5899 5898 5896 5893 5891 5890 5887 5883 5879 5875 5871 5866 5860 5860 5861 5864 5862 5861 5861 5862 5864 5866 5868 5870 5873 5875 5877 5879 5882 5884 5887 5889
5892 5895 5899 5904 5903 5902 5899 5901 5902 5902 5903 5904 5906 5906 5903 5904 5902 5900 5897 5896 5893 5892 5891 5888 5886 5881 5877 5874 5870 5866 5864 5864 5864 5862 5860 5861 5862 5863 5865 5867 5868 5870 5872 5875 5876 5879 5882 5884 5886
5886 5889 5894 5898 5898 5896 5895 5896 5898 5896 5898 5900 5903 5904 5905 5903 5901 5899 5898 5896 5893 5891 5892 5890 5886 5882 5879 5877 5875 5872 5869 5868 5866 5865 5862 5861 5862 5862 5862 5865 5866 5867 5869 5872 5874 5877 5879 5882 5883
5884 5883 5886 5890 5893 5891 5891 5890 5890 5889 5889 5895 5897 5899 5901 5901 5900 5898 5898 5897 5894 5891 5891 5889 5886 5882 5880 5878 5877 5875 5871 5868 5866 5864 5863 5862 5860 5860 5860 5861 5862 5865 5867 5868 5871 5873 5876 5878 5880
5870 5874 5880 5884 5888 5883 5886 5884 5887 5885 5885 5888 5892 5895 5896 5898 5898 5897 5896 5897 5893 5891 5890 5887 5884 5882 5880 5878 5877 5874 5871 5868 5865 5863 5861 5860 5859 5857 5857 5858 5859 5860 5862 5865 5866 5869 5872 5875 5877
5862 5864 5871 5878 5882 5875 5880 5878 5881 5879 5881 5884 5886 5890 5892 5893 5895 5895 5894 5894 5891 5890 5889 5885 5882 5879 5878 5876 5874 5870 5867 5865 5863 5862 5860 5858 5856 5854 5854 5854 5855 5856 5857 5860 5863 5866 5868 5870 5873
5853 5857 5863 5870 5873 5871 5871 5871 5874 5876 5877 5878 5880 5884 5885 5888 5890 5892 5891 5890 5888 5886 5885 5882 5879 5877 5875 5872 5870 5867 5865 5862 5860 5858 5857 5855 5852 5851 5851 5850 5851 5852 5853 5856 5859 5862 5864 5866 5868
5844 5852 5854 5858 5861 5864 5865 5865 5868 5870 5872 5875 5876 5877 5880 5884 5885 5887 5886 5886 5887 5883 5881 5878 5877 5874 5871 5869 5867 5865 5863 5859 5857 5855 5851 5851 5850 5849 5848 5847 5847 5849 5850 5852 5854 5858 5859 5862 5864
5845 5847 5848 5849 5849 5852 5857 5855 5860 5864 5867 5870 5872 5873 5875 5879 5881 5882 5882 5883 5883 5878 5876 5874 5873 5871 5869 5867 5864 5863 5859 5856 5852 5850 5845 5845 5845 5845 5844 5844 5844 5845 5847 5849 5851 5854 5855 5857 5859
5838 5839 5839 5840 5841 5840 5848 5849 5850 5857 5863 5864 5864 5867 5871 5873 5875 5877 5877 5878 5879 5874 5873 5871 5870 5868 5865 5863 5861 5859 5856 5851 5846 5843 5840 5841 5841 5842 5841 5841 5841 5842 5843 5845 5846 5848 5850 5852 5854
5828 5832 5833 5835 5836 5838 5843 5842 5845 5853 5853 5853 5855 5859 5863 5867 5869 5870 5872 5874 5874 5871 5868 5866 5865 5864 5862 5860 5858 5856 5851 5841 5832 5838 5838 5839 5836 5838 5837 5836 5837 5838 5839 5840 5842 5844 5845 5847 5849
5824 5828 5829 5828 5832 5834 5836 5834 5840 5843 5844 5846 5847 5851 5854 5858 5862 5865 5867 5868 5868 5866 5863 5862 5861 5860 5859 5857 5857 5852 5844 5836 5825 5831 5831 5837 5837 5834 5835 5832 5833 5832 5833 5835 5836 5837 5838 5840 5842
5818 5819 5825 5825 5826 5828 5831 5830 5833 5837 5841 5841 5842 5847 5850 5853 5858 5860 5862 5862 5862 5860 5859 5858 5858 5857 5856 5856 5853 5847 5843 5833 5824 5825 5831 5836 5836 5835 5833 5830 5830 5831 5831 5831 5831 5832 5834 5834 5834
5806 5813 5817 5819 5820 5822 5825 5825 5829 5833 5835 5837 5840 5844 5847 5850 5853 5855 5855 5856 5856 5856 5855 5854 5855 5855 5854 5852 5848 5845 5842 5835 5833 5836 5837 5838 5835 5836 5833 5830 5829 5830 5828 5828 5829 5828 5828 5829 5830
5803 5805 5807 5809 5811 5816 5819 5822 5826 5829 5830 5832 5834 5837 5841 5845 5847 5846 5848 5850 5851 5851 5851 5851 5852 5851 5850 5848 5844 5843 5840 5837 5834 5836 5834 5833 5832 5832 5831 5829 5829 5829 5828 5826 5825 5826 5826 5825 5826
5796 5799 5800 5803 5809 5811 5814 5816 5821 5823 5826 5829 5830 5834 5838 5839 5840 5841 5843 5845 5846 5846 5847 5847 5849 5848 5848 5845 5841 5839 5838 5836 5835 5833 5831 5830 5828 5828 5826 5826 5826 5826 5826 5825 5822 5821 5822 5822 5822